Other Public Products
Issued by NWS Grand Forks, ND

Home | Current Version | Previous Version | Text Only | Print | Product List | Glossary On
Versions: 1 2 3 4 5 6 7 8 9 10 11 12 13 14 15 16 17 18 19 20 21 22 23 24 25 26 27 28 29 30 31 32 33 34 35 36 37 38 39 40 41 42 43 44 45 46 47 48 49 50
000
FPUS83 KFGF 070631
OPUFGF
PRAIRIE TO PINES WEATHER ROUNDUP
NATIONAL WEATHER SERVICE EASTERN NORTH DAKOTA/GRAND FORKS ND
100 AM CDT THU MAY 07 2015

 **SATELLITE DATA USED TO AUGMENT SKY COVER AT AUTOMATED STATIONS**
 *****  WEATHER ACROSS EASTERN NORTH DAKOTA  *****

CITY           SKY/WX    TMP DP  RH WIND       PRES   REMARKS
GRAND FORKS    MOCLDY    63  61  93 SE16      29.64S
6HR MIN TEMP:  61; 6HR MAX TEMP:  63; 6HR PCP:  0.04;

GRAND FORKS AF PTCLDY    63  61  94 S13       29.63F
GRAND CITY NWS   N/A     61 N/A N/A S15         N/A
BUXTON           N/A     63  62  97 CALM        N/A
DEVILS LAKE    CLOUDY    59  57  94 SE12      29.58F
6HR MIN TEMP:  59; 6HR MAX TEMP:  61; 6HR PCP:  0.13;

FARGO          MOCLDY    64  60  87 SE16G25   29.66F
6HR MIN TEMP:  64; 6HR MAX TEMP:  66; 6HR PCP:  0.03;

WAHPETON ARPT  MOCLDY    61  55  82 SE12      29.69S
$$

 *****  WEATHER ACROSS CENTRAL AND WESTERN NORTH DAKOTA  *****

CITY           SKY/WX    TMP DP  RH WIND       PRES   REMARKS
JAMESTOWN      CLOUDY    59  57  93 S12       29.61S
6HR MIN TEMP:  58; 6HR MAX TEMP:  62; 6HR PCP:  0.01;

BISMARCK       HVY RAIN  59  58  96 W9        29.63R FOG
6HR MIN TEMP:  59; 6HR MAX TEMP:  69; 6HR PCP:  0.29;

MINOT          CLOUDY    55  53  93 NW23      29.64S FOG
6HR MIN TEMP:  55; 6HR MAX TEMP:  62; 6HR PCP:  0.07;

MINOT AFB      CLOUDY    55  55 100 NW22      29.64R
6HR MIN TEMP:  56; 6HR MAX TEMP:  64; 6HR PCP:  0.05;

GARRISON         N/A     55  53  93 N20       29.64S
6HR MIN TEMP:  55; 6HR MAX TEMP:  62; 6HR PCP:  1.22;

WILLISTON      CLOUDY    51  45  79 N20       29.78R
6HR MIN TEMP:  51; 6HR MAX TEMP:  53; 6HR PCP:  0.02;

DICKINSON      LGT RAIN  49  47  93 NW20      29.71S
6HR MIN TEMP:  49; 6HR MAX TEMP:  58; 6HR PCP:  0.13;

HETTINGER      LGT RAIN  48  46  93 NW21G30   29.72R FOG
6HR MIN TEMP:  48; 6HR MAX TEMP:  59; 6HR PCP:  0.01;

$$

 *****  OTHER OBSERVATIONS NORTHEAST NORTH DAKOTA  *****

CITY           SKY/WX    TMP DP  RH WIND       PRES   REMARKS
WALHALLA       LGT RAIN  59  59 100 E7        29.63F
LANGDON          N/A     59  59 100 SE14      29.62F FOG
CAVALIER       CLOUDY    59  59 100 SE6       29.63F
GRAFTON        MOCLDY    61  61 100 SE13      29.64F
CANDO          CLOUDY    57  57 100 E6        29.61F FOG
FORT TOTTEN      N/A     61  61 100 SE7       29.95
ROLLA          NOT AVBL
RUGBY          NOT AVBL
 ***** THE ABOVE OBSERVATIONS ARE NON NWS ARE NOT QUALITY
        CONTROLLED AND MAY MIS-REPORT RAIN FOR SNOW...
$$

 *****  OTHER OBSERVATIONS SOUTHEAST NORTH DAKOTA *****

CITY           SKY/WX    TMP DP  RH WIND       PRES   REMARKS
COOPERSTOWN    NOT AVBL
VALLEY CITY    MOCLDY    59  59 100 S8        29.63F
OAKES            N/A     59  59 100 S14       29.63F
GWINNER          N/A     63  63 100 S14       29.66S
SHEYENNE NWR     N/A     63  60  91 S13       29.95
BUFFALO        NOT AVBL
WYNDMERE       NOT AVBL
 ***** THE ABOVE OBSERVATIONS ARE NON NWS ARE NOT QUALITY
       CONTROLLED AND MAY MIS-REPORT RAIN FOR SNOW...
$$

  *****  WEATHER ACROSS NORTHERN MINNESOTA  *****

CITY           SKY/WX    TMP DP  RH WIND       PRES   REMARKS
FLAG ISLAND    CLOUDY    57  55  94 SE20G25   29.73F
WARROAD        CLOUDY    59  55  88 SE14      29.73F
ROSEAU         CLOUDY    61  55  82 S13       29.71F
HALLOCK        CLOUDY    63  59  88 SE15      29.65S
THF RVR FALLS  MOCLDY    63  59  88 SE13      29.70F
6HR MIN TEMP:  61; 6HR MAX TEMP:  64; 6HR PCP:  0.01;

HALSTAD          N/A     64  59  85 S14         N/A
FOSSTON        MOCLDY    63  57  82 SE9G16    29.73F
BAUDETTE       CLOUDY    58  56  93 SE13      29.77F
6HR MIN TEMP:  58; 6HR MAX TEMP:  62; 6HR PCP:  0.11;

WASKISH        CLOUDY    59  55  88 SE8       29.78F
CROOKSTON      MOCLDY    64  61  88 S17       29.68S
$$
  *****  WEATHER ACROSS CENTRAL AND WEST MINNESOTA  *****

CITY           SKY/WX    TMP DP  RH WIND       PRES   REMARKS
BEMIDJI        MOCLDY    58  57  95 E7        29.77F
PARK RAPIDS    MOCLDY    63  60  90 SE14      29.76F
6HR MIN TEMP:  63; 6HR MAX TEMP:  64; 6HR PCP:  0.11;

WADENA         PTCLDY    63  61  94 SE9       29.75F
DETROIT LAKES  MOCLDY    63  61  94 SE10      29.74F
MOORHEAD       MOCLDY    64  59  82 SE14      29.68F
FERGUS FALLS   CLOUDY    64  59  82 SE18G24   29.71F
ELBOW LAKE     CLOUDY    64  59  85 SE17G23   29.71F
6HR MIN TEMP:  63; 6HR MAX TEMP:  65; 6HR PCP:  0.03;

MORRIS MN      CLOUDY    64  59  82 SE16G22   29.71S
STAPLES        PTCLDY    63  61  94 SE7       29.78F
WHEATON        RAIN      61  57  88 SE16G24   29.70S
$$
  *****  WEATHER ELSEWHERE ACROSS MINNESOTA  *****

CITY           SKY/WX    TMP DP  RH WIND       PRES   REMARKS
DULUTH         MOCLDY    52  45  77 E10       29.90F
6HR MIN TEMP:  52; 6HR MAX TEMP:  58;

INTRNTL FALLS  MOCLDY    57  54  89 SE8       29.82F
6HR MIN TEMP:  57; 6HR MAX TEMP:  65; 6HR PCP:  0.08;

ELY            CLOUDY    61  52  72 S8G16     29.90S
CLOQUET        PTCLDY    46  37  71 E7        29.88F
BRAINERD       MOCLDY    65  59  81 S13       29.81F
6HR MIN TEMP:  62; 6HR MAX TEMP:  65; 6HR PCP:  0.05;

HIBBING        MOCLDY    57  50  77 SE7       29.87S
6HR MIN TEMP:  56; 6HR MAX TEMP:  62; 6HR PCP: TRACE;

ALEXANDRIA     PTCLDY    62  59  90 SE10      29.77F
6HR MIN TEMP:  62; 6HR MAX TEMP:  66; 6HR PCP:  0.15;

SAINT CLOUD    PTCLDY    64  59  83 SE9       29.80F
6HR MIN TEMP:  64; 6HR MAX TEMP:  67;

MINNEAPOLIS    PTCLDY    65  58  78 SE12      29.86F
6HR MIN TEMP:  65; 6HR MAX TEMP:  71;

$$

  *****  WEATHER ACROSS SOUTH DAKOTA  *****

CITY           SKY/WX    TMP DP  RH WIND       PRES   REMARKS
SIOUX FALLS    LGT RAIN  63  59  87 SE17G28   29.66S
6HR MIN TEMP:  62; 6HR MAX TEMP:  68; 6HR PCP:  0.10;

BROOKINGS      CLOUDY    61  57  88 SE18      29.67F
WATERTOWN      LGT RAIN  63  58  83 SE18G25   29.66F
6HR MIN TEMP:  63; 6HR MAX TEMP:  66; 6HR PCP: TRACE;

HURON          RAIN      61  60  97 S12       29.60F FOG
6HR MIN TEMP:  60; 6HR MAX TEMP:  69; 6HR PCP:  0.37;

SISSETON         N/A     61  60  97 S14       29.66F
ABERDEEN       RAIN      59  58  96 SE3       29.63F FOG
6HR MIN TEMP:  59; 6HR MAX TEMP:  67; 6HR PCP:  0.56;

MITCHELL       CLOUDY    63  60  90 S14       29.62S
PIERRE         CLOUDY    54  53  97 NW5       29.60S
6HR MIN TEMP:  54; 6HR MAX TEMP:  67; 6HR PCP: TRACE;

MOBRIDGE       CLOUDY    59  58  96 CALM      29.60S
RAPID CITY     CLOUDY    49  45  86 NW29G38   29.73R
6HR MIN TEMP:  49; 6HR MAX TEMP:  54; 6HR PCP:  0.09;

$$

  *****  SOME WEATHER IN NEARBY STATES *****

CITY           SKY/WX    TMP DP  RH WIND       PRES   REMARKS
GLASGOW MT     PTCLDY    46  31  55 NW15      29.92R
6HR MIN TEMP:  46; 6HR MAX TEMP:  58;

GREAT FALLS MT CLEAR     41  26  55 NE14      30.02R
6HR MIN TEMP:  41; 6HR MAX TEMP:  57;

CHEYENNE WY    RAIN      41  38  89 N16G22    29.87R FOG
6HR MIN TEMP:  41; 6HR MAX TEMP:  51; 6HR PCP:  0.08;

SCOTTSBLUFF NE LGT RAIN  48  45  89 NW20      29.80R FOG
6HR MIN TEMP:  48; 6HR MAX TEMP:  59; 6HR PCP:  0.02;

OMAHA NE       RAIN      62  59  90 S18       29.77R FOG
6HR MIN TEMP:  64; 6HR MAX TEMP:  71; 6HR PCP:  0.49;

DES MOINES IA  MOCLDY    70  57  63 S15G26    29.86S
6HR MIN TEMP:  68; 6HR MAX TEMP:  73;

DAVENPORT IA   MOCLDY    67  57  70 SE13      29.99F
6HR MIN TEMP:  65; 6HR MAX TEMP:  71; 6HR PCP: TRACE;

CHICAGO IL     PTCLDY    54  50  86 CALM      30.07R
6HR MIN TEMP:  53; 6HR MAX TEMP:  65;

EAU CLAIRE WI  CLOUDY    63  59  87 S6        29.93F
6HR MIN TEMP:  63; 6HR MAX TEMP:  75; 6HR PCP:  0.20;

LA CROSSE WI   MOCLDY    67  59  75 SE5       29.94F
6HR MIN TEMP:  65; 6HR MAX TEMP:  78; 6HR PCP:  0.03;

$$

  *****  SOME NATIONAL WEATHER *****

CITY           SKY/WX    TMP DP  RH WIND       PRES   REMARKS


USA.gov is the U.S. government's official web portal to all federal, state and local government web resources and services.